Powrót do katalogu

DELTA 1 DEB

AktywnySSO
NORAD 12527·DEBRIS·🇺🇸 United States

Wystrzelony Jul 29, 1976 z Vandenberg Space Force Base

Loading…

Następne Przeloty (najbliższe 24 godziny)

TLE

ŚwieżeSource: Space-Track

Epoka: Sep 14, 2026, 09:31 UTC

1 12527U 76077DG  26257.39705874 -.00000039  00000-0  47810-4 0  9996
2 12527 102.1663 227.3825 0037591 233.6140 281.7670 12.38111276162991

Śledź DELTA 1 DEB w czasie rzeczywistym z AllMySat

Download on the App Store